Preview of NWS' New Version of Forecast
This preview is not operational and should not be used for support decisions.

Regional Weather Roundup (RWR)

Issued by Gray - Portland, ME (GYX)

                            
000
ASUS41 KGYX 170805
RWRGYX
WEATHER ROUNDUP FOR MAINE AND NEW HAMPSHIRE
NATIONAL WEATHER SERVICE GRAY ME
300 AM EST THU JAN 17 2019

MEZ002-005-006-010-012-015-018-020-021-024-026-027-029-170900-
MAINE
  
CITY           SKY/WX    TMP DP  RH WIND       PRES   REMARKS
PORTLAND       FAIR      15   0  51 NW12      30.24R WCI   2          
SANFORD        FAIR      13   1  59 W9        30.25R                  
BAR HARBOR     FAIR      11  -2  56 VRB6      30.19R                  
WISCASSET      FAIR      12  -2  53 VRB5      30.25R                  
ROCKLAND       FAIR      12   0  58 NW14      30.20R WCI  -3          
FRYEBURG       FAIR       9  -5  53 W5        30.22R                  
LEWISTONAUBURN FAIR      11  -1  58 N6        30.24R                  
AUGUSTA        FAIR       8  -5  55 NW10      30.22R WCI  -6          
WATERVILLE     FAIR       7  -4  60 MISG      30.19R                  
BANGOR         FAIR       8  -6  52 NW14      30.21R WCI  -8          
GREENVILLE       N/A     -3 -12  65 NW21G30   30.03R WCI -26          
MILLINOCKET    MIX PCPN   1 -11  57 W20G35    30.15R WCI -20          
HOULTON        FAIR       2  -7  66 W12       30.08R WCI -15          
PRESQUE ISLE   FAIR       0  -7  72 W9        30.08R                  
FRENCHVILLE    FAIR      -3 -12  65 NW15      30.00R WCI -23          
CARIBOU        FAIR       0 -10  63 W5        30.05R                  
$$

NHZ002-005-008-009-011-012-014-170900-
NEW HAMPSHIRE
  
CITY           SKY/WX    TMP DP  RH WIND       PRES   REMARKS
PORTSMOUTH     PTCLDY    16  -6  37 W13       30.25R WCI   2          
ROCHESTER      FAIR      13  -1  54 NW15G21   30.24R WCI  -3          
NASHUA         FAIR      18   4  54 N8        30.28R                  
MANCHESTER     FAIR      17   1  49 N10       30.27R WCI   5          
CONCORD        FAIR      12  -1  56 NW10      30.28R WCI  -1          
LACONIA        FAIR       8  -2  63 W6        30.26R                  
PLYMOUTH       FAIR       4  -3  70 CALM      30.27R                  
BERLIN         FAIR       3  -6  66 VRB5      30.18R                  
WHITEFIELD     FAIR       1  -4  79 SW3       30.22R                  
JAFFREY        FAIR      15   1  53 CALM      30.21R                  
KEENE          FAIR      14   2  58 N9        30.28R                  
LEBANON        FAIR       4  -6  63 NE3       30.28R                  
MT WASHINGTON  PTCLDY   -15 -20  76 NW70        N/A  WCI -57          
$$

VTZ005-007-008-170900-
VERMONT
  
CITY           SKY/WX    TMP DP  RH WIND       PRES   REMARKS
ST JOHNSBURY     N/A      3  -8  60 MISG      30.27R                  
MONTPELIER     FAIR       1  -6  72 NW5       30.28R                  
BURLINGTON     MOCLDY     5  -5  63 CALM      30.35R                  
$$

MAZ007-012-024-CTZ003-RIZ002-NYZ038-NYZ072-170900-
SOUTHERN NEW ENGLAND AND NY
  
CITY           SKY/WX    TMP DP  RH WIND       PRES   REMARKS
BOSTON         FAIR      25   5  42 NW12      30.25R WCI  14          
WORCESTER      FAIR      19   4  51 NW12      30.19R WCI   7          
NANTUCKET      FAIR      31  15  52 NW15      30.20R                  
PROVIDENCE     FAIR      27  13  55 NW8       30.24R                  
HARTFORD       FAIR      23   8  52 NW22      30.28R WCI   8          
ALBANY         FAIR      15  -3  44 NW5       30.34R                  
NEW YORK CITY  MOCLDY    29   9  43 N17       30.30R WCI  17          
$$

ANZ081-ANZ082-ANZ150-NHZ014-MEZ023>029-170900-
COASTAL MARINE OBSERVATIONS
  
STATION/POSITION TIME  TEMP    WIND        PRES    WAVE
                       AIR SEA DIR/SP/G            HT/PER
                 (UTC) (F)     (DEG/KT/KT) (MB)    (FT/S)
MOUNT DESERT ROC 0800   18     310/ 33/ 36 1020.4R
MATINICUS ROCK   0700   20     320/ 27/ 29 1020.0R
ISLE OF SHOALS   0700   21     300/ 19/ 21 1022.7R
JEFFREYS LEDGE   0738      43                N/A     7/ 6
CASHES LEDGE BUO 0750   24 40              1021.7R   8/ 6
$$

.............KEY..............
   WCI - WIND CHILL
   TC  - TEMPERATURE IN CELSIUS
   VSB - VISIBILITY IN MILES
   HX  - HEAT INDEX
   FAIR- INDICATES FEW OR NO CLOUDS BELOW 12,000 FT, WITH NO 
         SIGNIFICANT WEATHER AND/OR OBSTRUCTIONS TO VISIBILITY.